Date String (YYYY-MM-DD hh:mm:ss) UTC,Instrument flags,absolute air pressure of the measurement (hPa),sample flow rate (lpm),inlet stack bypass flow (lpm),air temperature of the measurement (°C),ambient temperature measured by the external sensor (°C),aerosol sample conditioner tube jacket temperature (°C),OPC LED temperature (°C),internal box temperature (°C),relative humidity of the measurement (%),span deviation,mass concentration of particles derived from Lorenz-Mie calculation of OPC scattering (μg/m³),mass concentration of particles derived from Lorenz-Mie calculation of OPC scattering (μg/m³),mass concentration of particles derived from Lorenz-Mie calculation of OPC scattering (μg/m³)
DateTimeUTC,F1_M11,P_M11,Q1_M11,Q2_M11,T1_M11,T2_M11,T3_M11,T4_M11,T5_M11,U1_M11,ZSPAN_M11,X0_M11,X2_M11,X1_M11
2023-08-15 10:00:00,SystemResetWarning,0837.7,5.00,000.00,030.1,028.6,000.0,038.7,031.6,19.9,0000.0,0013.15,0005.90,0005.00
2023-08-15 10:01:00,SystemResetWarning,0837.8,5.00,000.00,030.1,028.6,000.0,038.7,031.6,20.0,-000.1,0013.35,0005.95,0004.99
2023-08-15 10:02:00,SystemResetWarning,0837.8,5.00,000.00,030.1,028.6,000.0,038.8,031.6,20.0,0000.1,0012.91,0005.93,0004.99
2023-08-15 10:03:00,SystemResetWarning,0837.7,5.00,000.00,030.1,028.6,000.0,038.8,031.6,20.0,0000.9,0012.80,0005.90,0004.97
2023-08-15 10:04:00,SystemResetWarning,0837.7,5.00,000.00,030.1,028.6,000.0,038.8,031.6,20.0,0000.8,0013.10,0005.88,0004.97
2023-08-15 10:05:00,SystemResetWarning,0837.8,5.01,000.00,030.1,028.6,000.0,038.8,031.6,20.1,0001.1,0013.39,0005.85,0004.97
2023-08-15 10:06:00,SystemResetWarning,0837.7,5.01,000.00,030.1,028.6,000.0,038.8,031.6,20.1,0000.9,0014.71,0005.80,0004.98
2023-08-15 10:07:00,SystemResetWarning,0837.7,5.00,000.00,030.1,028.6,000.0,038.8,031.6,20.1,0000.5,0014.31,0005.81,0004.97
2023-08-15 10:08:00,SystemResetWarning,0837.7,5.00,000.00,030.1,028.5,000.0,038.8,031.6,20.1,0000.8,0014.46,0005.80,0004.94
2023-08-15 10:09:00,SystemResetWarning,0837.7,4.99,000.00,030.1,026.6,000.0,038.6,031.4,20.1,0001.3,0014.74,0005.80,0004.91
2023-08-15 10:10:00,SystemResetWarning,0837.7,5.02,000.00,030.0,025.3,000.0,038.5,031.0,20.2,0001.8,0014.53,0005.80,0004.90
2023-08-15 10:11:00,SystemResetWarning,0837.7,5.00,000.00,029.8,025.3,000.0,038.4,030.8,20.4,0001.9,0014.45,0005.76,0004.90
2023-08-15 10:12:00,SystemResetWarning,0837.7,5.00,000.00,029.7,025.6,000.0,038.4,030.7,20.5,0001.9,0014.26,0005.70,0004.90
2023-08-15 10:13:00,SystemResetWarning,0837.7,5.00,000.00,029.6,026.0,000.0,038.4,030.8,20.6,0002.0,0014.99,0005.67,0004.89
2023-08-15 10:14:00,SystemResetWarning,0837.6,5.01,000.00,029.6,026.4,000.0,038.4,030.9,20.6,0002.0,0015.60,0005.68,0004.88
2023-08-15 10:15:00,SystemResetWarning,0837.7,5.00,000.00,029.6,026.7,000.0,038.4,030.9,20.7,0002.2,0015.82,0005.69,0004.87
2023-08-15 10:16:00,SystemResetWarning,0837.7,4.99,000.00,029.6,027.0,000.0,038.4,030.9,20.7,0001.9,0016.62,0005.67,0004.86
2023-08-15 10:17:00,SystemResetWarning,0837.7,5.00,000.00,029.6,027.2,000.0,038.4,031.0,20.7,0001.3,0015.38,0005.66,0004.85
2023-08-15 10:18:00,SystemResetWarning,0837.7,5.00,000.00,029.6,027.4,000.0,038.3,031.0,20.7,0002.4,0015.15,0005.64,0004.84
2023-08-15 10:19:00,SystemResetWarning,0837.7,5.01,000.00,029.6,027.6,000.0,038.3,031.0,20.8,0002.6,0014.81,0005.62,0004.84
2023-08-15 10:20:00,SystemResetWarning,0837.7,5.00,000.00,029.6,027.7,000.0,038.3,031.0,20.7,0001.9,0014.58,0005.60,0004.85
2023-08-15 10:21:00,SystemResetWarning,0837.7,5.01,000.00,029.6,027.8,000.0,038.3,031.1,20.7,0001.8,0014.98,0005.63,0004.86
2023-08-15 10:22:00,SystemResetWarning,0837.7,5.00,000.00,029.6,027.9,000.0,038.3,031.1,20.7,0000.5,0014.69,0005.70,0004.87
2023-08-15 10:23:00,SystemResetWarning,0837.7,5.00,000.00,029.6,027.9,000.0,038.3,031.1,20.7,0000.0,0014.24,0005.67,0004.86
2023-08-15 10:24:00,SystemResetWarning,0837.7,5.00,000.00,029.6,028.0,000.0,038.3,031.1,20.7,0000.1,0013.31,0005.69,0004.87
2023-08-15 10:25:00,SystemResetWarning,0837.7,5.00,000.00,029.6,028.0,000.0,038.3,031.1,20.7,0000.1,0012.83,0005.72,0004.88
2023-08-15 10:26:00,SystemResetWarning,0837.7,5.00,000.00,029.6,028.1,000.0,038.3,031.2,20.7,-000.0,0012.23,0005.69,0004.88
2023-08-15 10:27:00,SystemResetWarning,0837.7,5.00,000.00,029.6,028.1,000.0,038.3,031.1,20.7,0000.3,0011.10,0005.69,0004.89
2023-08-15 10:28:00,SystemResetWarning,0837.7,5.00,000.00,029.6,028.1,000.0,038.3,031.2,20.7,0000.7,0010.95,0005.73,0004.90
2023-08-15 10:29:00,SystemResetWarning,0837.7,5.00,000.00,029.6,028.2,000.0,038.3,031.2,20.7,-000.3,0011.45,0005.74,0004.91
2023-08-15 10:30:00,SystemResetWarning,0837.7,5.00,000.00,029.6,028.2,000.0,038.3,031.2,20.8,-000.5,0011.86,0005.74,0004.90
2023-08-15 10:31:00,SystemResetWarning,0837.7,5.00,000.00,029.7,028.2,000.0,038.3,031.2,20.7,-000.2,0012.32,0005.77,0004.91
2023-08-15 10:32:00,SystemResetWarning,0837.7,5.00,000.00,029.7,028.2,000.0,038.3,031.2,20.7,-000.2,0012.34,0005.75,0004.93
2023-08-15 10:33:00,SystemResetWarning,0837.7,5.00,000.00,029.7,028.2,000.0,038.3,031.2,20.7,-000.2,0012.32,0005.69,0004.92
2023-08-15 10:34:00,SystemResetWarning,0837.7,5.00,000.00,029.7,028.2,000.0,038.3,031.2,20.7,-000.6,0012.59,0005.71,0004.92
2023-08-15 10:35:00,SystemResetWarning,0837.7,5.00,000.00,029.7,028.2,000.0,038.3,031.2,20.7,-000.7,0012.68,0005.72,0004.92
2023-08-15 10:36:00,SystemResetWarning,0837.7,5.00,000.00,029.7,028.3,000.0,038.3,031.2,20.8,-000.1,0012.64,0005.69,0004.91
2023-08-15 10:37:00,SystemResetWarning,0837.7,5.00,000.00,029.7,028.3,000.0,038.3,031.3,20.7,-000.1,0012.80,0005.72,0004.90
2023-08-15 10:38:00,SystemResetWarning,0837.7,5.00,000.00,029.7,028.3,000.0,038.3,031.3,20.7,-000.5,0013.37,0005.78,0004.90
2023-08-15 10:39:00,SystemResetWarning,0837.7,5.00,000.00,029.7,028.3,000.0,038.4,031.3,20.7,-000.9,0013.55,0005.76,0004.90
2023-08-15 10:40:00,SystemResetWarning,0837.7,5.00,000.00,029.7,028.4,000.0,038.4,031.3,20.9,-000.3,0013.06,0005.76,0004.91
2023-08-15 10:41:00,SystemResetWarning,0837.7,5.00,000.00,029.8,028.4,000.0,038.4,031.3,21.0,-000.2,0012.73,0005.75,0004.92
2023-08-15 10:42:00,SystemResetWarning,0837.7,5.00,000.00,029.8,028.4,000.0,038.4,031.3,20.8,0000.2,0012.02,0005.73,0004.91
2023-08-15 10:43:00,SystemResetWarning,0837.7,5.00,000.00,029.8,028.5,000.0,038.4,031.3,20.7,0000.3,0011.97,0005.73,0004.90
2023-08-15 10:44:00,SystemResetWarning,0837.7,5.00,000.00,029.8,028.5,000.0,038.4,031.4,20.7,0000.1,0011.91,0005.77,0004.90
2023-08-15 10:45:00,SystemResetWarning,0837.7,5.00,000.00,029.8,028.5,000.0,038.4,031.4,20.6,0000.7,0011.93,0005.79,0004.90
2023-08-15 10:46:00,SystemResetWarning,0837.7,5.01,000.00,029.8,028.5,000.0,038.4,031.4,20.6,0001.0,0012.18,0005.77,0004.91
2023-08-15 10:47:00,SystemResetWarning,0837.7,5.00,000.00,029.8,028.5,000.0,038.4,031.4,20.6,0000.9,0013.38,0005.78,0004.91
2023-08-15 10:48:00,SystemResetWarning,0837.6,5.01,000.00,029.8,028.6,000.0,038.4,031.4,20.6,0001.4,0013.99,0005.77,0004.93
2023-08-15 10:49:00,SystemResetWarning,0837.7,5.00,000.00,029.9,028.6,000.0,038.5,031.4,20.5,0001.8,0013.51,0005.72,0004.94
2023-08-15 10:50:00,SystemResetWarning,0837.7,5.00,000.00,029.9,028.6,000.0,038.5,031.4,20.4,0002.2,0013.45,0005.71,0004.94
2023-08-15 10:51:00,SystemResetWarning,0837.7,4.99,000.00,029.9,028.6,000.0,038.5,031.4,20.3,0002.1,0013.41,0005.69,0004.93
2023-08-15 10:52:00,SystemResetWarning,0837.7,5.00,000.00,029.9,028.6,000.0,038.5,031.5,20.3,0001.7,0013.50,0005.68,0004.92
2023-08-15 10:53:00,SystemResetWarning,0837.7,5.00,000.00,029.9,028.6,000.0,038.5,031.5,20.3,0001.0,0014.20,0005.72,0004.93
2023-08-15 10:54:00,SystemResetWarning,0837.7,5.00,000.00,029.9,028.6,000.0,038.5,031.5,20.3,0000.2,0014.82,0005.74,0004.94
2023-08-15 10:55:00,SystemResetWarning,0837.7,4.99,000.00,029.9,028.6,000.0,038.5,031.5,20.3,0000.3,0014.98,0005.68,0004.93
2023-08-15 10:56:00,SystemResetWarning,0837.7,4.99,000.00,029.9,028.7,000.0,038.5,031.5,20.3,0000.5,0015.52,0005.67,0004.92
2023-08-15 10:57:00,SystemResetWarning,0837.7,5.00,000.00,030.0,028.7,000.0,038.6,031.5,20.0,0000.2,0015.36,0005.69,0004.91
2023-08-15 10:58:00,SystemResetWarning,0837.7,4.99,000.00,030.0,028.7,000.0,038.6,031.5,19.8,0000.4,0014.46,0005.72,0004.91
2023-08-15 10:59:00,SystemResetWarning,0837.8,5.00,000.00,030.0,028.7,000.0,038.6,031.5,19.8,0000.1,0013.52,0005.71,0004.90
